When you browse on this site, cookies collect data to enhance your experience and personalize the content and advertising you see.
Visit our Privacy Policy to learn more. By continuing to use the site, you agree to this use of cookies and data.
  • In Slovakia
  • List of Countries
  • For 7 days
  • Water Temperature
  • Weather Map
  • Weather Widgets
  • user-avatar
    Login

    Hourly Weather Katschberg

    Today, 14 October, Monday

    Time Temperature Precipitation Wind Pressure Humidity
    00:00 +8°C° 0 mm 1 mps 629 mmHg 69%
    01:00 +8°C° 0 mm 1 mps 629 mmHg 66%
    02:00 +8°C° 0 mm 1 mps 629 mmHg 65%
    03:00 +7°C° 0 mm 1 mps 628 mmHg 64%
    04:00 +7°C° 0 mm 1 mps 628 mmHg 63%
    05:00 +8°C° 0 mm 1 mps 628 mmHg 62%
    06:00 +8°C° 0 mm 1 mps 628 mmHg 62%
    07:00 +8°C° 0 mm 1 mps 629 mmHg 61%
    08:00 +11°C° 0 mm 1 mps 629 mmHg 57%
    09:00 +14°C° 0 mm 1 mps 630 mmHg 52%
    10:00 +18°C° 0 mm 1 mps 631 mmHg 48%
    11:00 +17°C° 0 mm 2 mps 631 mmHg 48%
    12:00 +18°C° 0 mm 2 mps 631 mmHg 48%
    13:00 +18°C° 0 mm 2 mps 631 mmHg 48%
    14:00 +17°C° 0 mm 2 mps 630 mmHg 56%
    15:00 +16°C° 0 mm 2 mps 629 mmHg 63%
    16:00 +15°C° 0 mm 2 mps 629 mmHg 71%
    17:00 +13°C° 0 mm 2 mps 628 mmHg 78%
    18:00 +10°C° 0 mm 2 mps 627 mmHg 85%
    19:00 +8°C° 0 mm 2 mps 627 mmHg 92%
    20:00 +8°C° 0 mm 2 mps 627 mmHg 90%
    21:00 +7°C° 0 mm 2 mps 626 mmHg 88%
    22:00 +7°C° 0 mm 2 mps 626 mmHg 87%
    23:00 +6°C° 0 mm 2 mps 626 mmHg 86%

    Tomorrow, 15 October, Tuesday

    Time Temperature Precipitation Wind Pressure Humidity
    00:00 +6°C° 0 mm 2 mps 625 mmHg 85%
    01:00 +5°C° 0 mm 2 mps 625 mmHg 84%
    02:00 +5°C° 0 mm 2 mps 625 mmHg 84%
    03:00 +5°C° 0 mm 2 mps 624 mmHg 84%
    04:00 +4°C° 0 mm 2 mps 624 mmHg 84%
    05:00 +4°C° 0 mm 2 mps 624 mmHg 85%
    06:00 +4°C° 0 mm 2 mps 624 mmHg 87%
    07:00 +4°C° 0 mm 2 mps 624 mmHg 88%
    08:00 +5°C° 0 mm 3 mps 624 mmHg 84%
    09:00 +7°C° 0 mm 3 mps 624 mmHg 79%
    10:00 +9°C° 0 mm 3 mps 624 mmHg 75%
    11:00 +10°C° 0 mm 3 mps 624 mmHg 74%
    12:00 +10°C° 0 mm 4 mps 625 mmHg 72%
    13:00 +11°C° 0 mm 4 mps 625 mmHg 70%
    14:00 +11°C° 0 mm 4 mps 624 mmHg 74%
    15:00 +10°C° 0 mm 3 mps 623 mmHg 78%
    16:00 +10°C° 0 mm 3 mps 623 mmHg 81%
    17:00 +9°C° 0 mm 3 mps 623 mmHg 86%
    18:00 +8°C° 0 mm 3 mps 623 mmHg 91%
    19:00 +7°C° 0 mm 2 mps 623 mmHg 96%
    20:00 +7°C° 0 mm 2 mps 623 mmHg 96%
    21:00 +7°C° 0 mm 2 mps 623 mmHg 96%
    22:00 +7°C° 0 mm 2 mps 624 mmHg 96%
    23:00 +8°C° 0.2 mm 1 mps 624 mmHg 97%

    Day after tomorrow, 16 October, Wednesday

    Time Temperature Precipitation Wind Pressure Humidity
    00:00 +8°C° 0.2 mm 1 mps 624 mmHg 98%
    01:00 +8°C° 0.2 mm 1 mps 625 mmHg 98%
    02:00 +8°C° 1.4 mm 1 mps 625 mmHg 98%
    03:00 +8°C° 1.4 mm 1 mps 625 mmHg 99%
    04:00 +8°C° 1.4 mm 1 mps 625 mmHg 99%
    05:00 +7°C° 0.4 mm 1 mps 625 mmHg 99%
    06:00 +7°C° 0.4 mm 1 mps 626 mmHg 98%
    07:00 +7°C° 0.4 mm 1 mps 626 mmHg 98%
    08:00 +7°C° 0.2 mm 1 mps 626 mmHg 97%
    09:00 +7°C° 0.2 mm 1 mps 626 mmHg 96%
    10:00 +8°C° 0.2 mm 1 mps 627 mmHg 94%
    11:00 +8°C° 0.2 mm 1 mps 627 mmHg 92%
    12:00 +9°C° 0.2 mm 1 mps 627 mmHg 90%
    13:00 +9°C° 0.2 mm 1 mps 627 mmHg 87%
    14:00 +9°C° 0.1 mm 1 mps 627 mmHg 87%
    15:00 +9°C° 0.1 mm 1 mps 627 mmHg 87%
    16:00 +10°C° 0.1 mm 1 mps 627 mmHg 87%
    17:00 +8°C° 0.1 mm 1 mps 627 mmHg 90%
    18:00 +7°C° 0.1 mm 1 mps 627 mmHg 94%
    19:00 +6°C° 0.1 mm 1 mps 626 mmHg 97%
    20:00 +6°C° 0 mm 1 mps 627 mmHg 97%
    21:00 +6°C° 0 mm 1 mps 627 mmHg 97%
    22:00 +6°C° 0 mm 1 mps 627 mmHg 97%
    23:00 +5°C° 0 mm 1 mps 627 mmHg 96%

    17 October, Thursday

    Time Temperature Precipitation Wind Pressure Humidity
    00:00 +5°C° 0 mm 1 mps 627 mmHg 95%
    01:00 +5°C° 0 mm 1 mps 626 mmHg 94%
    02:00 +4°C° 0 mm 1 mps 626 mmHg 94%
    03:00 +4°C° 0 mm 1 mps 626 mmHg 93%
    04:00 +3°C° 0 mm 1 mps 625 mmHg 92%
    05:00 +3°C° 0 mm 1 mps 625 mmHg 90%
    06:00 +3°C° 0 mm 1 mps 625 mmHg 88%
    07:00 +3°C° 0 mm 1 mps 625 mmHg 87%
    08:00 +5°C° 0 mm 1 mps 626 mmHg 79%
    09:00 +8°C° 0 mm 1 mps 627 mmHg 72%
    10:00 +10°C° 0 mm 1 mps 628 mmHg 65%
    11:00 +11°C° 0 mm 1 mps 628 mmHg 60%
    12:00 +12°C° 0 mm 1 mps 628 mmHg 55%
    13:00 +13°C° 0 mm 1 mps 629 mmHg 51%
    14:00 +12°C° 0 mm 1 mps 628 mmHg 56%
    15:00 +12°C° 0 mm 1 mps 628 mmHg 61%
    16:00 +11°C° 0 mm 1 mps 628 mmHg 66%
    17:00 +9°C° 0 mm 1 mps 627 mmHg 74%
    18:00 +7°C° 0 mm 1 mps 627 mmHg 82%
    19:00 +4°C° 0 mm 0 mps 626 mmHg 90%
    20:00 +3°C° 0 mm 0 mps 626 mmHg 90%
    21:00 +3°C° 0 mm 0 mps 627 mmHg 90%
    22:00 +3°C° 0 mm 0 mps 627 mmHg 89%
    23:00 +3°C° 0 mm 0 mps 627 mmHg 90%

    18 October, Friday

    Time Temperature Precipitation Wind Pressure Humidity
    00:00 +3°C° 0 mm 0 mps 627 mmHg 90%
    01:00 +3°C° 0 mm 0 mps 626 mmHg 90%
    02:00 +3°C° 0 mm 0 mps 626 mmHg 90%
    03:00 +4°C° 0 mm 1 mps 626 mmHg 91%
    04:00 +4°C° 0 mm 1 mps 626 mmHg 91%
    05:00 +4°C° 0 mm 1 mps 627 mmHg 91%
    06:00 +4°C° 0 mm 1 mps 627 mmHg 91%
    07:00 +4°C° 0 mm 1 mps 627 mmHg 91%
    08:00 +6°C° 0 mm 1 mps 627 mmHg 84%
    09:00 +8°C° 0 mm 1 mps 628 mmHg 77%
    10:00 +10°C° 0 mm 1 mps 629 mmHg 69%
    11:00 +11°C° 0 mm 1 mps 629 mmHg 66%
    12:00 +11°C° 0 mm 1 mps 629 mmHg 63%
    13:00 +12°C° 0 mm 1 mps 629 mmHg 60%
    14:00 +12°C° 0 mm 1 mps 629 mmHg 64%
    15:00 +11°C° 0 mm 1 mps 628 mmHg 68%
    16:00 +11°C° 0 mm 1 mps 628 mmHg 72%
    17:00 +9°C° 0 mm 1 mps 628 mmHg 79%
    18:00 +7°C° 0 mm 1 mps 627 mmHg 86%
    19:00 +5°C° 0 mm 0 mps 627 mmHg 93%
    20:00 +5°C° 0 mm 0 mps 627 mmHg 94%
    21:00 +5°C° 0 mm 1 mps 627 mmHg 94%
    22:00 +5°C° 0 mm 1 mps 626 mmHg 95%
    23:00 +5°C° 0 mm 1 mps 626 mmHg 95%

    19 October, Saturday

    Time Temperature Precipitation Wind Pressure Humidity
    00:00 +5°C° 0 mm 1 mps 626 mmHg 95%
    01:00 +4°C° 0 mm 1 mps 626 mmHg 95%
    02:00 +4°C° 0 mm 1 mps 626 mmHg 95%
    03:00 +4°C° 0 mm 1 mps 626 mmHg 95%
    04:00 +4°C° 0 mm 1 mps 625 mmHg 95%
    05:00 +4°C° 0 mm 1 mps 625 mmHg 95%
    06:00 +4°C° 0 mm 1 mps 625 mmHg 95%
    07:00 +4°C° 0 mm 1 mps 625 mmHg 95%
    08:00 +6°C° 0 mm 1 mps 626 mmHg 89%
    09:00 +7°C° 0 mm 1 mps 626 mmHg 83%
    10:00 +9°C° 0 mm 1 mps 627 mmHg 77%
    11:00 +8°C° 0.1 mm 2 mps 626 mmHg 76%
    12:00 +9°C° 0.1 mm 2 mps 626 mmHg 76%
    13:00 +9°C° 0.1 mm 2 mps 626 mmHg 75%
    14:00 +9°C° 0.1 mm 2 mps 626 mmHg 79%
    15:00 +8°C° 0.1 mm 2 mps 625 mmHg 82%
    16:00 +8°C° 0.1 mm 2 mps 625 mmHg 86%
    17:00 +7°C° 0 mm 2 mps 624 mmHg 89%
    18:00 +6°C° 0 mm 2 mps 624 mmHg 93%
    19:00 +5°C° 0 mm 2 mps 624 mmHg 96%
    20:00 +5°C° 0 mm 2 mps 624 mmHg 96%
    21:00 +5°C° 0 mm 2 mps 624 mmHg 95%
    22:00 +5°C° 0 mm 2 mps 624 mmHg 95%
    23:00 +4°C° 0 mm 2 mps 624 mmHg 95%
    Show more